�N����,����,�~����,�C��,���x,�C��,����,���ϕ���,�ő�u�ԕ���,�ő厞����,���˗�,�I�_���x,�n�����x,�ő啗���N��,DTYPE
"18/09/09","00:10",0.0,21.6,95.8,1007.6,308.1,0.6,1.1,338.7,0.00,20.9,24.1,"00:09:20",1
"18/09/09","00:20",0.0,21.6,96.0,1007.6,320.7,0.7,1.2,339.6,0.00,21.0,24.2,"00:13:52",1
"18/09/09","00:30",0.0,21.5,95.9,1007.6,298.4,0.7,1.3,337.8,0.00,20.9,23.9,"00:26:40",1
"18/09/09","00:40",0.0,21.6,96.1,1007.4,295.0,0.6,1.0,323.0,0.00,21.0,24.0,"00:30:56",1
"18/09/09","00:50",0.0,21.6,96.1,1007.4,320.3,0.7,1.4,324.9,0.00,21.0,24.2,"00:47:20",1
"18/09/09","01:00",0.0,21.5,96.0,1006.9,280.3,0.6,1.1,314.0,0.00,20.9,24.2,"00:54:32",1
"18/09/09","01:10",0.0,21.4,96.2,1006.7,276.4,0.3,0.6,254.5,0.00,20.8,23.9,"01:03:36",1
"18/09/09","01:20",0.0,21.4,96.3,1006.7,289.6,0.5,1.1,262.8,0.00,20.8,24.0,"01:19:04",1
"18/09/09","01:30",0.0,21.4,96.4,1006.4,300.3,0.6,1.3,333.3,0.00,20.8,24.0,"01:24:56",1
"18/09/09","01:40",0.0,21.5,96.3,1007.1,325.2,0.8,1.4,317.8,0.00,20.9,24.2,"01:32:00",1
"18/09/09","01:50",0.0,21.5,96.4,1007.1,336.0,1.1,2.0,340.3,0.00,20.9,24.0,"01:47:04",1
"18/09/09","02:00",0.0,21.4,96.4,1006.9,317.3,0.8,1.6,334.6,0.00,20.8,23.9,"01:51:28",1
"18/09/09","02:10",0.0,21.4,96.5,1007.1,294.8,0.7,1.2,290.1,0.00,20.9,24.2,"02:09:44",1
"18/09/09","02:20",0.0,21.4,96.5,1007.6,336.6,0.8,1.3,337.0,0.00,20.9,24.0,"02:11:20",1
"18/09/09","02:30",0.0,21.5,96.6,1007.4,312.4,1.0,1.7,337.6,0.00,21.0,23.9,"02:28:16",1
"18/09/09","02:40",0.0,21.5,96.6,1007.4,289.9,0.3,0.9,306.5,0.00,21.0,24.0,"02:35:52",1
"18/09/09","02:50",0.0,21.6,96.6,1006.9,316.0,0.8,1.7,325.0,0.00,21.1,23.8,"02:46:40",1
"18/09/09","03:00",0.0,21.7,96.6,1007.1,281.2,0.3,1.0,314.6,0.00,21.2,24.2,"02:51:20",1
"18/09/09","03:10",0.0,21.7,96.7,1007.1,314.9,0.6,1.2,307.0,0.00,21.2,24.0,"03:03:28",1
"18/09/09","03:20",0.0,21.8,96.6,1007.1,335.2,0.5,1.0,318.4,0.00,21.3,23.9,"03:14:48",1
"18/09/09","03:30",0.0,21.8,96.6,1007.1,293.4,0.5,0.9,329.0,0.00,21.3,23.8,"03:20:08",1
"18/09/09","03:40",0.0,21.8,96.6,1007.4,309.1,0.8,1.0,320.6,0.00,21.3,24.0,"03:31:04",1
"18/09/09","03:50",0.0,21.7,96.6,1007.1,301.8,0.7,1.0,334.5,0.00,21.2,24.0,"03:46:08",1
"18/09/09","04:00",0.0,21.7,96.8,1006.9,272.7,0.5,0.9,243.1,0.00,21.2,24.0,"03:50:08",1
"18/09/09","04:10",0.0,21.7,96.7,1006.9,311.9,0.8,1.7,316.1,0.00,21.2,23.8,"04:08:56",1
"18/09/09","04:20",0.0,21.7,96.8,1006.4,282.3,0.7,1.1,308.7,0.00,21.2,24.0,"04:14:32",1
"18/09/09","04:30",0.0,21.7,96.8,1006.7,280.5,0.7,1.1,244.8,0.00,21.2,24.1,"04:20:32",1
"18/09/09","04:40",0.0,21.8,96.9,1006.7,304.1,0.7,1.2,327.8,0.00,21.3,23.9,"04:37:36",1
"18/09/09","04:50",0.0,21.8,96.8,1006.4,345.0,0.6,1.2,327.2,0.00,21.3,23.9,"04:42:00",1
"18/09/09","05:00",0.0,21.8,96.8,1006.4,278.9,0.6,1.4,336.7,0.00,21.3,24.1,"04:51:04",1
"18/09/09","05:10",0.0,21.7,96.9,1006.7,289.2,0.8,1.4,331.6,0.00,21.2,23.7,"05:02:48",1
"18/09/09","05:20",0.0,21.8,97.0,1006.7,306.7,0.6,1.2,262.0,0.00,21.3,23.8,"05:14:32",1
"18/09/09","05:30",0.0,21.9,97.0,1006.9,253.3,0.3,0.9,317.0,0.00,21.4,23.8,"05:22:24",1
"18/09/09","05:40",0.0,21.9,96.9,1006.9,315.1,0.3,0.6,340.6,0.00,21.4,23.9,"05:33:44",1
"18/09/09","05:50",0.0,22.0,96.9,1007.1,283.8,0.1,0.6,201.0,0.00,21.5,23.9,"05:49:04",1
"18/09/09","06:00",0.0,22.0,96.9,1006.7,275.3,0.2,0.8,314.5,0.00,21.5,23.8,"05:57:52",1
"18/09/09","06:10",0.0,22.1,97.0,1006.9,298.3,0.7,1.1,319.6,0.00,21.6,23.8,"06:03:52",1
"18/09/09","06:20",0.0,22.1,97.0,1007.4,295.5,0.6,0.9,254.6,0.00,21.6,23.9,"06:12:24",1
"18/09/09","06:30",0.0,22.2,96.9,1007.1,314.2,0.3,0.9,340.4,0.00,21.7,23.8,"06:21:44",1
"18/09/09","06:40",0.0,22.3,97.0,1007.4,288.7,0.1,0.5,283.6,0.00,21.8,23.9,"06:30:16",1
"18/09/09","06:50",0.0,22.3,96.7,1007.4,304.6,0.5,0.9,314.4,0.01,21.8,23.8,"06:45:20",1
"18/09/09","07:00",0.0,22.5,97.0,1007.4,293.8,0.5,0.9,303.1,0.02,22.0,23.9,"06:54:00",1
"18/09/09","07:10",0.0,22.7,96.5,1007.4,334.9,0.5,1.0,342.8,0.06,22.2,23.8,"07:02:00",1
"18/09/09","07:20",0.0,22.9,96.4,1007.1,228.0,0.2,0.9,235.8,0.09,22.3,24.2,"07:18:48",1
"18/09/09","07:30",0.0,23.2,95.7,1006.9,267.0,0.5,1.1,237.3,0.07,22.5,24.2,"07:21:52",1
"18/09/09","07:40",0.0,23.0,96.0,1006.7,283.6,0.7,1.0,306.5,0.06,22.4,24.1,"07:34:24",1
"18/09/09","07:50",0.0,23.3,95.2,1006.9,239.6,1.0,1.7,218.4,0.07,22.5,24.2,"07:45:28",1
"18/09/09","08:00",0.0,23.5,95.1,1006.9,271.4,1.0,1.8,232.3,0.07,22.7,24.2,"07:51:12",1
"18/09/09","08:10",0.0,23.7,93.6,1006.9,311.8,1.1,2.4,336.0,0.13,22.6,24.4,"08:05:20",1
"18/09/09","08:20",0.0,24.3,90.9,1006.9,346.4,0.5,1.4,330.6,0.17,22.8,24.3,"08:11:52",1
"18/09/09","08:30",0.0,25.3,88.4,1006.9,201.8,0.2,1.0,25.1,0.29,23.3,24.6,"08:20:24",1
"18/09/09","08:40",0.0,25.3,87.0,1006.4,210.4,0.6,1.2,232.0,0.28,23.0,24.7,"08:34:08",1
"18/09/09","08:50",0.0,25.4,85.0,1006.2,172.4,0.6,1.9,209.2,0.27,22.7,24.7,"08:49:04",1
"18/09/09","09:00",0.0,25.6,85.6,1006.7,146.8,0.7,1.6,120.5,0.16,23.0,25.1,"08:58:32",1
"18/09/09","09:10",0.0,25.6,85.8,1007.6,148.0,0.6,1.3,114.7,0.11,23.1,25.1,"09:00:08",1
"18/09/09","09:20",0.0,25.8,85.3,1007.1,196.1,0.6,1.1,189.9,0.12,23.2,24.9,"09:10:56",1
"18/09/09","09:30",0.4,25.8,84.5,1007.6,191.4,0.3,1.0,183.3,0.05,23.0,25.1,"09:27:44",1
"18/09/09","09:40",0.2,25.2,86.2,1007.1,171.8,0.8,1.6,175.4,0.04,22.8,25.1,"09:35:52",1
"18/09/09","09:50",0.4,24.8,87.8,1007.1,212.0,1.1,2.1,229.7,0.02,22.7,25.1,"09:46:16",1
"18/09/09","10:00",0.2,24.8,89.3,1007.4,218.7,1.2,2.0,223.6,0.06,23.0,25.2,"09:50:08",1
"18/09/09","10:10",0.0,24.8,89.7,1007.4,227.8,0.7,2.2,233.7,0.06,23.0,25.3,"10:04:24",1
"18/09/09","10:20",0.0,24.7,90.6,1007.1,224.2,0.5,1.1,152.1,0.14,23.1,25.2,"10:11:44",1
"18/09/09","10:30",0.0,25.2,90.2,1007.4,320.6,0.3,1.0,351.9,0.10,23.5,25.4,"10:24:16",1
"18/09/09","10:40",0.0,25.4,90.2,1007.1,342.7,0.8,1.4,352.1,0.07,23.7,25.1,"10:35:36",1
"18/09/09","10:50",0.0,25.0,90.5,1007.1,359.8,0.7,2.0,342.8,0.14,23.4,25.3,"10:48:00",1
"18/09/09","11:00",0.0,25.0,89.3,1007.4,342.1,0.6,1.2,6.2,0.10,23.2,25.4,"10:51:44",1
"18/09/09","11:10",0.6,24.9,89.1,1007.1,295.9,0.7,1.1,335.3,0.04,23.0,25.3,"11:05:20",1
"18/09/09","11:20",0.2,24.9,91.6,1007.1,339.3,0.5,1.6,348.8,0.15,23.5,25.3,"11:17:36",1
"18/09/09","11:30",0.0,24.9,90.8,1007.1,343.1,1.0,1.8,348.3,0.10,23.3,25.4,"11:26:24",1
"18/09/09","11:40",0.2,24.5,90.7,1007.1,346.8,0.2,0.8,10.8,0.09,22.9,25.3,"11:30:08",1
"18/09/09","11:50",0.0,24.9,90.6,1006.4,332.0,0.2,0.9,116.4,0.10,23.3,25.4,"11:49:04",1
"18/09/09","12:00",0.2,24.9,91.1,1006.9,0.3,0.3,0.8,322.7,0.17,23.4,25.4,"11:57:52",1
"18/09/09","12:10",0.0,24.8,91.0,1006.9,176.8,0.3,1.1,111.0,0.13,23.3,25.5,"12:04:40",1
"18/09/09","12:20",0.0,25.4,91.0,1006.9,275.5,0.5,0.9,304.0,0.10,23.9,25.3,"12:12:08",1
"18/09/09","12:30",0.0,25.3,90.7,1006.7,217.6,0.5,1.4,229.6,0.06,23.7,25.6,"12:24:24",1
"18/09/09","12:40",0.0,25.3,90.5,1006.9,348.7,0.6,1.3,352.2,0.09,23.7,25.7,"12:36:24",1
"18/09/09","12:50",0.0,25.4,90.2,1006.7,334.4,0.7,1.3,331.4,0.08,23.7,25.6,"12:44:08",1
"18/09/09","13:00",0.0,25.2,90.3,1006.7,314.7,0.6,1.3,340.1,0.04,23.5,25.7,"12:51:52",1
"18/09/09","13:10",0.0,25.4,90.6,1006.4,287.3,0.6,0.9,296.7,0.06,23.8,25.6,"13:05:36",1
"18/09/09","13:20",0.0,25.5,90.5,1006.4,289.5,0.5,1.0,307.8,0.09,23.9,25.7,"13:18:56",1
"18/09/09","13:30",0.0,25.6,89.8,1006.0,276.6,0.5,1.1,243.3,0.09,23.8,25.7,"13:27:04",1
"18/09/09","13:40",0.0,25.8,89.0,1006.2,278.3,0.5,1.0,327.0,0.06,23.9,25.5,"13:34:40",1
"18/09/09","13:50",0.0,25.7,88.8,1006.4,261.2,0.6,1.2,237.6,0.05,23.8,25.5,"13:49:28",1
"18/09/09","14:00",0.0,26.0,89.3,1006.0,293.7,0.3,0.9,296.8,0.05,24.1,25.6,"13:54:40",1
"18/09/09","14:10",0.0,26.1,89.6,1005.7,323.4,0.7,1.4,332.0,0.05,24.3,25.7,"14:03:52",1
"18/09/09","14:20",0.0,26.0,89.8,1006.4,306.4,0.7,1.3,330.6,0.04,24.2,25.8,"14:14:00",1
"18/09/09","14:30",0.0,26.0,89.9,1006.2,285.4,0.6,1.1,332.2,0.05,24.3,25.7,"14:22:24",1
"18/09/09","14:40",0.0,26.0,90.2,1006.0,278.7,0.6,1.3,294.6,0.05,24.3,25.7,"14:31:20",1
"18/09/09","14:50",0.0,25.7,90.1,1006.2,291.7,1.0,1.7,320.5,0.06,24.0,25.8,"14:48:16",1
"18/09/09","15:00",0.0,25.9,90.3,1006.0,337.4,1.0,1.8,344.4,0.04,24.2,25.7,"14:58:48",1
"18/09/09","15:10",0.0,25.7,90.5,1005.7,312.0,1.1,2.1,340.6,0.04,24.1,25.8,"15:00:32",1
"18/09/09","15:20",0.0,25.8,90.9,1005.5,305.0,0.7,1.4,324.1,0.05,24.2,25.6,"15:12:08",1
"18/09/09","15:30",0.0,25.8,90.7,1005.2,269.1,0.7,1.6,297.6,0.04,24.2,25.7,"15:28:08",1
"18/09/09","15:40",0.0,25.7,91.0,1005.5,262.9,1.0,1.8,238.6,0.02,24.2,25.8,"15:33:04",1
"18/09/09","15:50",0.0,25.7,91.3,1005.7,301.4,1.0,2.0,343.4,0.03,24.2,25.7,"15:46:56",1
"18/09/09","16:00",0.0,25.8,91.5,1005.7,302.1,0.8,1.9,344.1,0.01,24.3,25.6,"15:54:24",1
"18/09/09","16:10",0.2,25.1,90.6,1005.5,34.6,1.3,4.3,6.3,0.02,23.5,25.7,"16:07:36",1
"18/09/09","16:20",0.0,25.7,90.4,1005.7,334.2,1.2,3.1,341.5,0.02,24.0,25.6,"16:19:12",1
"18/09/09","16:30",0.0,25.5,90.2,1005.5,318.8,1.0,2.1,317.9,0.01,23.8,25.5,"16:27:12",1
"18/09/09","16:40",0.0,25.2,89.7,1006.2,291.9,1.0,2.6,342.2,0.02,23.4,25.6,"16:36:32",1
"18/09/09","16:50",0.0,24.8,89.7,1006.4,266.1,1.0,1.8,224.9,0.00,23.0,25.6,"16:45:20",1
"18/09/09","17:00",0.0,24.9,89.4,1006.4,316.5,1.0,2.4,343.8,0.01,23.1,25.6,"16:53:20",1
"18/09/09","17:10",0.0,24.5,89.0,1006.2,321.6,1.5,3.3,338.0,0.00,22.6,25.7,"17:02:24",1
"18/09/09","17:20",0.0,24.3,88.9,1006.4,290.5,1.2,3.3,321.0,0.01,22.4,25.6,"17:13:12",1
"18/09/09","17:30",0.0,24.3,88.5,1006.7,296.7,1.3,3.3,320.6,0.00,22.3,25.4,"17:21:28",1
"18/09/09","17:40",0.0,24.2,88.1,1007.1,288.5,1.3,3.7,218.4,0.00,22.1,25.1,"17:32:40",1
"18/09/09","17:50",0.2,24.1,88.2,1007.1,281.2,1.2,4.1,328.1,0.00,22.1,25.2,"17:42:48",1
"18/09/09","18:00",0.0,24.0,89.0,1006.9,322.0,1.0,2.1,345.4,0.00,22.1,25.5,"17:53:52",1
"18/09/09","18:10",0.6,23.8,89.9,1007.1,327.5,1.2,4.4,349.8,0.00,22.1,25.3,"18:08:00",1
"18/09/09","18:20",0.0,23.7,90.6,1006.9,333.4,0.8,2.0,335.7,0.00,22.1,25.3,"18:10:02",1
"18/09/09","18:30",0.4,23.5,91.4,1007.4,109.5,0.5,1.1,358.3,0.00,22.1,25.2,"18:20:08",1
"18/09/09","18:40",0.0,23.5,92.1,1007.1,106.1,0.3,1.2,20.7,0.00,22.2,25.2,"18:39:28",1
"18/09/09","18:50",0.0,23.5,92.5,1007.1,344.0,0.5,1.2,336.6,0.00,22.3,25.3,"18:43:28",1
"18/09/09","19:00",0.0,23.3,93.1,1006.9,76.8,0.3,1.0,104.4,0.00,22.2,25.0,"18:58:40",1
"18/09/09","19:10",0.0,23.3,93.4,1007.4,261.5,0.5,1.1,85.6,0.00,22.2,24.9,"19:00:16",1
"18/09/09","19:20",0.0,23.3,93.5,1007.4,241.3,0.8,1.8,260.0,0.00,22.2,24.9,"19:13:36",1
"18/09/09","19:30",0.0,23.3,93.8,1006.9,302.7,0.5,1.4,343.0,0.00,22.3,25.0,"19:28:56",1
"18/09/09","19:40",0.2,23.2,94.0,1007.4,333.8,0.7,1.3,333.2,0.00,22.2,25.0,"19:30:16",1
"18/09/09","19:50",0.0,23.1,94.3,1007.1,318.6,0.6,1.0,328.2,0.00,22.2,24.9,"19:40:16",1
"18/09/09","20:00",0.0,23.0,94.4,1007.4,332.0,1.1,1.9,334.8,0.00,22.1,25.0,"19:59:20",1
"18/09/09","20:10",0.0,22.9,94.7,1007.4,318.7,0.7,1.6,345.6,0.00,22.0,24.8,"20:00:08",1
"18/09/09","20:20",0.0,22.9,94.9,1007.4,333.3,1.0,1.2,338.7,0.00,22.1,24.6,"20:10:16",1
"18/09/09","20:30",0.0,22.9,94.9,1007.4,339.7,0.7,1.1,342.1,0.00,22.1,24.9,"20:28:32",1
"18/09/09","20:40",0.0,22.9,95.1,1007.8,341.1,0.6,1.0,342.1,0.00,22.1,24.9,"20:30:40",1
"18/09/09","20:50",0.0,22.9,95.3,1007.6,317.5,0.6,1.2,334.4,0.00,22.1,24.9,"20:41:28",1
"18/09/09","21:00",0.0,22.8,95.3,1007.1,315.7,0.7,1.3,336.2,0.00,22.0,24.8,"20:56:48",1
"18/09/09","21:10",0.0,22.7,95.4,1007.4,272.1,0.7,1.3,262.3,0.00,22.0,24.7,"21:05:52",1
"18/09/09","21:20",0.0,22.8,95.5,1007.6,291.3,0.7,1.2,318.9,0.00,22.1,24.8,"21:17:04",1
"18/09/09","21:30",0.0,22.8,95.5,1007.6,321.8,0.7,1.6,335.9,0.00,22.1,24.7,"21:28:32",1
"18/09/09","21:40",0.0,22.8,95.6,1007.6,312.9,0.7,1.3,344.9,0.00,22.1,24.6,"21:31:28",1
"18/09/09","21:50",0.0,22.8,95.7,1007.8,315.7,0.5,1.2,1.8,0.00,22.1,24.7,"21:42:00",1
"18/09/09","22:00",0.0,22.8,95.8,1007.8,265.1,0.2,0.6,239.6,0.00,22.1,24.7,"21:53:36",1
"18/09/09","22:10",0.0,22.8,95.8,1007.8,311.9,0.6,1.6,330.1,0.00,22.1,24.7,"22:00:02",1
"18/09/09","22:20",0.0,22.8,95.9,1007.8,351.8,0.6,1.6,347.7,0.00,22.2,24.7,"22:10:24",1
"18/09/09","22:30",0.0,22.8,95.9,1007.8,356.9,0.6,1.6,5.8,0.00,22.2,24.7,"22:27:12",1
"18/09/09","22:40",0.2,22.8,96.0,1007.6,331.1,0.7,1.2,348.6,0.00,22.2,24.6,"22:33:04",1
"18/09/09","22:50",0.0,22.7,95.9,1007.6,272.6,0.6,1.0,260.5,0.00,22.1,24.7,"22:44:08",1
"18/09/09","23:00",0.0,22.7,96.0,1008.1,282.4,0.5,0.9,259.8,0.00,22.1,24.4,"22:52:32",1
"18/09/09","23:10",0.0,22.8,96.1,1007.6,351.2,0.1,0.8,41.2,0.00,22.2,24.5,"23:07:28",1
"18/09/09","23:20",0.0,22.8,96.0,1007.6,333.1,0.7,1.6,329.3,0.00,22.2,24.3,"23:19:52",1
"18/09/09","23:30",0.2,22.7,96.1,1007.6,270.1,0.6,1.1,261.4,0.00,22.1,24.4,"23:26:00",1
"18/09/09","23:40",0.4,22.6,96.2,1007.6,299.3,0.7,1.4,324.9,0.00,22.0,24.6,"23:36:08",1
"18/09/09","23:50",0.4,22.6,96.2,1008.1,273.9,0.7,1.2,333.3,0.00,22.0,24.6,"23:40:02",1
"18/09/09","24:00",0.2,22.6,96.3,1007.8,308.0,1.1,1.6,327.0,0.00,22.0,24.5,"23:50:32",1
